Location: Sihaung
(22.8641°N, 94.0549°E)
Time: 14:10:08
(UTC+00:00)

Cosmos 2074 Rocket - Pass Details

Date: 03 March 2021
Orbit: 966 x 987 km, 82.9° (Epoch: 10 April)

Event Time Altitude Azimuth Distance (km) Brightness Sun altitude
Rises 23:19:23 0° 358° (N) 3,655 7.0 -10.8°
Reaches altitude 10° 23:21:55 10° 360° (N) 2,705 6.3 -10.2°
Maximum altitude 23:28:05 74° 85° (E) 1,002 4.3 -8.8°
Drops below altitude 10° 23:34:15 10° 170° (S) 2,698 6.5 -7.4°
Sets 23:36:45 0° 172° (S) 3,644 7.2 -6.8°
